Regional Weather Roundup
Issued by NWS Sterling, VA

Home | Current Version | Previous Version | Graphics & Text | Print | Product List | Glossary On
Versions: 1 2 3 4 5 6 7 8 9 10 11 12 13 14 15 16 17 18 19 20 21 22 23 24 25 26 27 28 29 30 31 32 33 34 35 36 37 38 39 40 41 42 43 44 45 46 47 48 49 50
389
ASUS41 KLWX 201411
RWRLWX

REGIONAL WEATHER ROUNDUP
NATIONAL WEATHER SERVICE BALTIMORE MD/WASHINGTON DC
1000 AM EDT FRI OCT 20 2017

Note: "FAIR" indicates few or no clouds below 12,000 feet
with no significant weather and/or obstructions to visibility.
 TC=TEMPERATURE CELSIUS

 * =Non NWS site. Station does not report precipitation (e.g. rain,
    snow, etc.), thunder, or fog.

DCZ001-MDZ009-015-VAZ040>042-051-053>054-201500-
WASHINGTON METRO

CITY           SKY/WX    TMP DP  RH WIND       PRES   REMARKS
WASHINGTON NAT CLOUDY    69  50  50 NW9       30.25R
DULLES         PTSUNNY   65  51  60 CALM      30.27R
ANDREWS AFB    CLOUDY    67  49  52 NW8       30.24R
FT BELVOIR     SUNNY     63  54  74 NW5       30.25R
QUANTICO       PTSUNNY   62  51  67 CALM      30.27R
COLLEGE PARK*  CLOUDY    65  50  59 NW5       30.24R
LEESBURG*      SUNNY     68  54  60 NW10      30.28R
MANASSAS*      SUNNY     56  51  84 CALM      30.27R
GAITHERSBURG*  CLOUDY    63  52  67 NW6       30.27R

$$

MDZ006>007-011-014-201500-
BALTIMORE METRO

CITY           SKY/WX    TMP DP  RH WIND       PRES   REMARKS
BWI AIRPORT    PTSUNNY   66  51  58 W7        30.24R
MD SCIENCE CTR   N/A     67  48  50 MISG      30.24S
MARTIN STATE   MOSUNNY   66  55  68 W10       30.25R
ANNAPOLIS      CLOUDY    67  54  63 NW7       30.24R
FORT MEADE*    SUNNY     61  52  72 NW6       30.26S

$$

MDZ012-015-019>023-201500-
MARYLAND EASTERN SHORE

CITY           SKY/WX    TMP DP  RH WIND       PRES   REMARKS
OCEAN CITY     SUNNY     66  55  67 NW8       30.22S
SALISBURY      SUNNY     65  55  70 NW8       30.22R
CAMBRIDGE*     SUNNY     66  54  63 N7        30.23R
EASTON*        SUNNY     66  54  63 NW3       30.26S

$$

MDZ017>025-201500-
SOUTHERN MARYLAND

CITY           SKY/WX    TMP DP  RH WIND       PRES   REMARKS
PATUXENT RIVER MOSUNNY   68  52  56 NW7       30.24R
ST INIGOES     SUNNY     67  53  61 VRB3      30.24R
LEONARDTOWN*   NOT AVBL

$$

MDZ003>005-201500-
NORTH CENTRAL MARYLAND

CITY           SKY/WX    TMP DP  RH WIND       PRES   REMARKS
FREDERICK*     SUNNY     64  50  59 W6        30.28S
HAGERSTOWN APT SUNNY     64  49  57 W5        30.27R
WESTMINSTER*   CLOUDY    63  50  63 NW7       30.25S

$$

MDZ501>502-201500-
WESTERN MARYLAND

CITY           SKY/WX    TMP DP  RH WIND       PRES   REMARKS
OAKLAND*       SUNNY     52  45  76 W6        30.30R
CUMBERLAND*    SUNNY     55  50  82 CALM      30.33R

$$

VAZ025>031-201500-
SHENANDOAH VALLEY

CITY           SKY/WX    TMP DP  RH WIND       PRES   REMARKS
WINCHESTER*    SUNNY     63  50  63 W3        30.28R
FRONT ROYAL*   SUNNY     61  46  59 S3        30.28R
LURAY*         SUNNY     57  46  67 S3        30.29S
NEW MARKET*    SUNNY     57  45  64 SW7       30.30R
STAUNTON*      SUNNY     55  44  66 CALM      30.34R
WAYNESBORO*    SUNNY     59  48  66 CALM      30.32R

$$

WVZ021-048>050-054>055-201500-
EASTERN WEST VIRGINIA PANHANDLE

CITY           SKY/WX    TMP DP  RH WIND       PRES   REMARKS
MARTINSBURG    SUNNY     65  49  56 NW5       30.27R
PETERSBURG*    SUNNY     53  44  74 CALM      30.30S

$$

VAZ036>039-050-201500-
CENTRAL FOOTHILLS

CITY           SKY/WX    TMP DP  RH WIND       PRES   REMARKS
CHARLOTTESVILL SUNNY     65  48  54 W5        30.27R
CULPEPER*      SUNNY     61  50  67 CALM      30.28R
ORANGE*        SUNNY     64  50  59 W6        30.27R
GORDONSVILLE*  SUNNY     64  56  75 CALM      30.27R
WARRENTON*     SUNNY     62  48  60 CALM      30.27R

$$

VAZ055>057-201500-
NORTH AND CENTRAL PIEDMONT

CITY           SKY/WX    TMP DP  RH WIND       PRES   REMARKS
FREDERICKSBRG* SUNNY     62  52  71 CALM      30.26R
STAFFORD*      SUNNY     60  55  81 CALM      30.30R

$$

NCZ024-NYZ072-PAZ021-071-VAZ022-071-201500-
OTHER REGIONAL OBSERVATIONS

CITY           SKY/WX    TMP DP  RH WIND       PRES   REMARKS
NEW YORK CITY  SUNNY     61  40  45 W8        30.20R
PHILADELPHIA   MOSUNNY   65  48  54 NW10      30.23R
PITTSBURGH     MOSUNNY   56  50  80 CALM      30.32R
ROANOKE        SUNNY     61  47  59 N3        30.35R
RICHMOND       MOSUNNY   63  51  65 CALM      30.26R
RALEIGH        MOSUNNY   61  50  67 VRB3      30.29R

$$

ANZ530>537-201500-
MARINE OBSERVATIONS

STATION/POSITION TIME  TEMP    WIND        PRES
                       AIR SEA DIR/SP/G
                 (UTC) (F)     (DEG/KT/KT) (MB)
THOMAS PT LIGHT  1400   65 66  310/ 11/ 12   N/A
BALT KEY BRIDGE  1348   65     300/ 10/ 11 1023.8R
COVE POINT       1348   67     350/ 15/ 18 1024.4R
LEWISETTA        1348   63 64  310/  5/  5 1024.1R
SOLOMONS ISLAND  1348   65 69  320/  8/  9 1023.5R
PINEY POINT      1342          340/  7/  8   N/A

$$





USA.gov is the U.S. government's official web portal to all federal, state and local government web resources and services.